Hagerstown, MD

7:31 PM EDT on July 21, 2017 (GMT -0400)
Hagerstown Regional-Henson

Weather History for KHGR - December, 2011

Change the Weather History Date:

Tuesday, December 6, 2011

  Actual Average Record
Temperature  
Mean Temperature 57 °F 37 °F  
Max Temperature 59 °F 44 °F 73 °F (1998)
Min Temperature 54 °F 30 °F 11 °F (2007)
Degree Days  
Heating Degree Days 8 28  
Month to date heating degree days 124 163  
Since 1 July heating degree days 1015 1168  
Cooling Degree Days 0 0  
Month to date cooling degree days 0 0  
Year to date cooling degree days 1313 969  
Growing Degree Days 7 (Base 50)    
Moisture  
Dew Point 55 °F    
Average Humidity 90    
Maximum Humidity 93    
Minimum Humidity 86    
Precipitation  
Precipitation 0.03 in 0.10 in 0.63 in (2016)
Month to date precipitation 0.03 0.66  
Year to date precipitation 44.01 37.06  
Sea Level Pressure  
Sea Level Pressure 29.97 in    
Wind  
Wind Speed 7 mph (South)    
Max Wind Speed 14 mph    
Max Gust Speed 17 mph    
Visibility 6 miles    
Events Fog , Rain    
T = Trace of Precipitation, MM = Missing Value Source: NWS Daily Summary

Daily Weather History Graph

Daily Weather History Graph

Search for Another Location

Airport or City:

Trip Planner

Search our weather history database for the weather conditions in past years. The results will help you decide how hot, cold, wet, or windy it might be!

Date:

Astronomy

Dec. 06, 2011 Rise Set
Actual Time 7:17 AM EST 4:46 PM EST
Civil Twilight 6:47 AM EST 5:16 PM EST
Nautical Twilight 6:13 AM EST 5:50 PM EST
Astronomical Twilight 5:40 AM EST 6:22 PM EST
Moon 2:12 PM EST (12/6) 3:34 AM EST (12/6)
Length of Visible Light 10h 29m
Length of Day
9h 29m
Waxing Gibbous, 86% of the Moon is Illuminated
Dec 6
Waxing Gibbous
Dec 10
Full
Dec 17
Last Quarter
Dec 24
New
Jan 1
First Quarter

Hourly Weather History & Observations

Time (EST) Temp. Dew Point Humidity Pressure Visibility Wind Dir Wind Speed Gust Speed Precip Events Conditions
12:53 AM 55.0 °F 52.0 °F 89% 30.11 in 8.0 mi SSE 8.1 mph - N/A   Overcast
1:53 AM 55.0 °F 53.1 °F 93% 30.10 in 8.0 mi South 11.5 mph - 0.00 in   Overcast
2:49 AM 55.4 °F 53.6 °F 94% 30.06 in 10.0 mi South 10.4 mph - N/A   Overcast
2:50 AM 55.9 °F 53.1 °F 90% 30.09 in 10.0 mi South 10.4 mph - N/A   Overcast
3:53 AM 55.0 °F 53.1 °F 93% 30.07 in 10.0 mi South 6.9 mph - N/A   Overcast
4:53 AM 55.0 °F 53.1 °F 93% 30.06 in 9.0 mi SSE 5.8 mph - N/A   Overcast
5:53 AM 55.0 °F 53.1 °F 93% 30.07 in 8.0 mi SSE 5.8 mph - 0.00 in   Overcast
6:53 AM 55.9 °F 54.0 °F 93% 30.07 in 8.0 mi South 6.9 mph - 0.00 in   Overcast
7:53 AM 55.9 °F 54.0 °F 93% 30.06 in 9.0 mi South 6.9 mph - 0.00 in   Overcast
8:53 AM 57.0 °F 54.0 °F 89% 30.07 in 10.0 mi South 6.9 mph - 0.00 in   Overcast
10:55 AM 57.2 °F 55.4 °F 94% 30.01 in 5.0 mi SSE 6.9 mph - N/A Rain Light Rain
11:55 AM 57.2 °F 55.4 °F 94% 29.99 in 6.0 mi South 4.6 mph - N/A   Overcast
3:25 PM 59.0 °F 57.2 °F 94% 29.95 in 10.0 mi South 5.8 mph - 0.00 in   Overcast
3:53 PM 59.0 °F 57.0 °F 93% 29.97 in 10.0 mi South 5.8 mph - 0.00 in   Overcast
4:05 PM 59.0 °F 57.2 °F 94% 29.95 in 10.0 mi South 5.8 mph - N/A   Overcast
4:17 PM 59.0 °F 57.2 °F 94% 29.95 in 10.0 mi South 4.6 mph - N/A   Overcast
4:30 PM 59.0 °F 57.2 °F 94% 29.94 in 10.0 mi Calm Calm - N/A   Overcast
4:53 PM 57.9 °F 57.0 °F 97% 29.97 in 10.0 mi South 3.5 mph - N/A   Overcast
5:53 PM 59.0 °F 57.0 °F 93% 29.96 in 10.0 mi South 6.9 mph - N/A   Overcast
6:53 PM 57.9 °F 57.0 °F 97% 29.96 in 10.0 mi SSE 3.5 mph - N/A   Overcast
7:21 PM 57.2 °F 57.2 °F 100% 29.94 in 10.0 mi South 3.5 mph - N/A   Overcast
7:43 PM 57.2 °F 55.4 °F 94% 29.95 in 1.5 mi Calm Calm - N/A   Mostly Cloudy
7:48 PM 57.2 °F 55.4 °F 94% 29.94 in 0.5 mi Calm Calm - N/A Fog Fog
7:53 PM 55.9 °F 55.0 °F 97% 29.97 in 0.2 mi Calm Calm - N/A Fog Fog
8:01 PM 57.2 °F 55.4 °F 94% 29.94 in 0.8 mi Calm Calm - N/A   Mostly Cloudy
8:06 PM 57.2 °F 55.4 °F 94% 29.95 in 2.0 mi Calm Calm - N/A   Mostly Cloudy
8:13 PM 57.2 °F 55.4 °F 94% 29.95 in 7.0 mi Calm Calm - N/A   Overcast
8:53 PM 57.9 °F 57.0 °F 97% 29.97 in 9.0 mi Calm Calm - N/A   Overcast
9:23 PM 57.2 °F 55.4 °F 94% 29.93 in 1.8 mi Calm Calm - N/A   Overcast
9:33 PM 57.2 °F 55.4 °F 94% 29.93 in 0.5 mi Calm Calm - N/A Fog Fog
9:40 PM 55.4 °F 55.4 °F 100% 29.92 in 0.5 mi Calm Calm - N/A Fog Fog
9:53 PM 55.9 °F 55.0 °F 97% 29.95 in 0.8 mi South 3.5 mph - N/A   Mostly Cloudy
9:59 PM 57.2 °F 55.4 °F 94% 29.92 in 2.5 mi South 4.6 mph - N/A   Mostly Cloudy
10:06 PM 55.4 °F 55.4 °F 100% 29.92 in 8.0 mi South 3.5 mph - N/A   Mostly Cloudy
10:53 PM 57.0 °F 55.0 °F 93% 29.92 in 9.0 mi SSE 4.6 mph - N/A   Clear
11:28 PM 57.2 °F 55.4 °F 94% 29.89 in 2.5 mi SW 3.5 mph - N/A   Scattered Clouds
11:33 PM 55.4 °F 55.4 °F 100% 29.89 in 3.0 mi WSW 3.5 mph - N/A   Mostly Cloudy
11:38 PM 55.4 °F 55.4 °F 100% 29.90 in 1.5 mi WSW 3.5 mph - N/A   Mostly Cloudy
11:48 PM 55.4 °F 55.4 °F 100% 29.89 in 0.2 mi West 3.5 mph - N/A Fog Fog
11:53 PM 54.0 °F 54.0 °F 100% 29.92 in 0.2 mi West 3.5 mph - N/A Fog Fog